DG5MLB Weather Reports


time (UTC)temp
C
wind
direction
speed
KPH
gust
KPH
rain 1hr
cm
rain 24hr
cm
rain mn
cm
humidity
%
barometer
mb
20260506013007 10 210 0.0 0.0 0.00 0.46 0.00 87 1006.2
20260506011539 10 210 0.0 0.0 0.00 0.46 0.00 87 1006.4
20260506010005 10 210 0.0 0.0 0.00 0.46 0.00 87 1006.5
20260506004519 10 210 0.0 1.6 0.00 0.46 0.00 87 1006.4
20260506003008 10 210 0.0 1.6 0.00 0.46 0.00 87 1006.4
20260506001521 10 210 0.0 3.2 0.00 0.46 0.00 87 1006.6
20260506000008 10 210 0.0 0.0 0.00 0.46 0.00 87 1006.6
20260505234537 11 210 0.0 0.0 0.00 0.46 0.00 87 1006.7
20260505233008 11 210 0.0 0.0 0.00 0.46 0.00 87 1006.8
20260505231522 11 210 0.0 0.0 0.00 0.46 0.00 86 1006.8
20260505230011 11 210 0.0 0.0 0.00 0.46 0.00 87 1006.9
20260505224534 11 210 0.0 4.8 0.00 0.46 0.00 86 1007.0
20260505223015 11 201 1.6 8.0 0.00 0.46 0.00 86 1007.0
20260505221521 12 199 0.0 4.8 0.00 0.46 0.00 87 1007.0
20260505220008 12 167 0.0 8.0 0.03 0.46 0.00 86 1007.1
20260505214523 12 192 0.0 6.4 0.36 0.46 0.46 89 1007.2
20260505213010 12 170 0.0 8.0 0.41 0.46 0.46 86 1007.2
20260505211603 12 190 0.0 4.8 0.41 0.46 0.46 85 1007.2
20260505210012 12 185 0.0 27.4 0.43 0.43 0.43 83 1007.1
20260505204502 12 226 0.0 4.8 0.10 0.10 0.10 82 1006.9
20260505203014 13 197 0.0 4.8 0.05 0.05 0.05 80 1006.9
20260505201502 14 233 0.0 6.4 0.05 0.05 0.05 74 1006.5
20260505200011 15 222 0.0 6.4 0.00 0.00 0.00 69 1006.3
20260505194619 15 236 1.6 9.7 0.00 0.00 0.00 68 1005.8
20260505193016 15 263 1.6 4.8 0.00 0.00 0.00 70 1005.4
20260505191503 15 205 0.0 1.6 0.00 0.00 0.00 67 1004.7
20260505190013 15 302 0.0 1.6 0.00 0.00 0.00 65 1004.7
20260505184505 16 304 0.0 0.0 0.00 0.00 0.00 64 1004.4
20260505183018 16 304 0.0 6.4 0.00 0.00 0.00 64 1004.2
20260505181506 16 324 4.8 9.7 0.00 0.00 0.00 63 1004.1
20260505180015 16 322 4.8 16.1 0.00 0.00 0.00 61 1004.2
20260505174506 16 336 6.4 11.3 0.00 0.00 0.00 60 1004.2
20260505173017 17 300 6.4 12.9 0.00 0.00 0.00 61 1004.0
20260505171507 17 296 4.8 9.7 0.00 0.00 0.00 64 1004.0
20260505170021 17 338 4.8 14.5 0.00 0.00 0.00 64 1003.8
20260505164507 17 317 6.4 11.3 0.00 0.00 0.00 66 1003.8
20260505163021 17 323 4.8 11.3 0.00 0.00 0.00 67 1003.8
20260505161509 17 346 3.2 12.9 0.00 0.00 0.00 66 1003.9
20260505153017 18 331 1.6 9.7 0.00 0.00 0.00 61 1003.8
20260505151505 18 321 1.6 11.3 0.00 0.00 0.00 56 1004.0
20260505124538 21 279 0.0 9.7 0.00 0.00 0.00 39 1003.5
20260505123044 22 305 4.8 12.9 0.00 0.00 0.00 39 1003.6
20260505121541 22 355 0.0 11.3 0.00 0.00 0.00 40 1003.6
20260505120014 22 313 0.0 0.0 0.00 0.00 0.00 39 1003.5
20260505114526 22 304 0.0 0.0 0.00 0.00 0.00 38 1003.6
20260505113015 22 49 0.0 0.0 0.00 0.00 0.00 38 1003.7
20260505111538 23 313 0.0 0.0 0.00 0.00 0.00 37 1003.8
20260505101530 22 321 0.0 0.0 0.00 0.00 0.00 44 1004.4
20260505100032 20 324 0.0 0.0 0.00 0.00 0.00 47 1004.6
20260505094533 21 324 0.0 0.0 0.00 0.00 0.00 46 1004.9
20260505093027 22 5 0.0 0.0 0.00 0.00 0.00 45 1005.0
20260505091544 20 192 0.0 0.0 0.00 0.00 0.00 47 1005.2
20260505090021 20 238 0.0 0.0 0.00 0.00 0.00 50 1005.5
20260505084525 20 113 0.0 0.0 0.00 0.00 0.00 52 1005.6
20260505083041 20 119 0.0 0.0 0.00 0.00 0.00 53 1005.7
20260505081616 19 272 0.0 0.0 0.00 0.00 0.00 57 1005.9
20260505080029 18 91 0.0 0.0 0.00 0.00 0.00 63 1006.0
20260505074517 17 241 0.0 0.0 0.00 0.00 0.00 65 1006.2
20260505073026 16 224 0.0 0.0 0.00 0.00 0.00 69 1006.5
20260505071616 15 217 0.0 0.0 0.00 0.00 0.00 71 1006.6
20260505070025 15 286 0.0 0.0 0.00 0.00 0.00 73 1006.6
20260505064516 15 197 0.0 0.0 0.00 0.00 0.00 74 1006.5
20260505063036 13 256 0.0 0.0 0.00 0.00 0.00 77 1006.6
20260505061524 13 250 0.0 0.0 0.00 0.00 0.00 78 1006.7
20260505060032 12 257 0.0 0.0 0.00 0.00 0.00 80 1006.7
20260505054524 12 255 0.0 0.0 0.00 0.00 0.00 83 1006.7
20260505053026 11 252 0.0 1.6 0.00 0.00 0.00 85 1006.9
20260505041612 8 252 0.0 0.0 0.00 0.00 0.00 85 1006.9
20260505040019 8 252 0.0 0.0 0.00 0.00 0.00 84 1006.8
20260505034543 8 252 0.0 0.0 0.00 0.00 0.00 85 1006.9
20260505033139 8 252 0.0 0.0 0.00 0.00 0.00 84 1006.9
20260505031544 8 252 0.0 0.0 0.00 0.00 0.00 84 1007.0
20260505030051 8 252 0.0 0.0 0.00 0.00 0.00 84 1007.1
20260505024505 9 252 0.0 0.0 0.00 0.00 0.00 83 1007.2
20260505023017 10 252 0.0 0.0 0.00 0.00 0.00 83 1007.3
20260505021553 10 252 0.0 0.0 0.00 0.00 0.00 83 1007.5
20260505020134 10 252 0.0 0.0 0.00 0.00 0.00 82 1007.6
20260505014545 11 252 0.0 0.0 0.00 0.00 0.00 81 1007.6